AMC-21

Last updated on Thu Oct 30 2025 00:02:48 GMT+0000 (Coordinated Universal Time)

1 33275U 08038B 25302.52181506 .00000047 00000+0 00000+0 0 9998 2 33275 2.3471 83.1079 0002760 132.4376 245.5325 1.00272455 63188
UTC large
Height (km)
Speed (km/s)
/
Latitude / Longitude
Inclination (degrees)
Orbital Period (minutes)
Azimuth
Elevation
Range (km)
Doppler Factor

Next 0 passes for location: London (51.5072 / 0.1276)

Sorry there are no passes over London.